Location: Dodge City Community College Clyde Tombaugh Astronomy Center
(37.7756°N, 100.0412°W)
Time: 03:50:58
(UTC+00:00)

Cosmos 2228 Rocket - Pass Details

Date: 09 July 2022
Orbit: 618 x 651 km, 82.5° (Epoch: 07 August)

Event Time Altitude Azimuth Distance (km) Brightness Sun altitude
Rises 09:25:03 0° 355° (N) 2,927 7.2 -19.2°
Reaches altitude 10° 09:27:18 10° 357° (N) 2,020 6.4 -18.9°
Maximum altitude 09:31:46 71° 81° (E) 675 3.3 -18.3°
Enters shadow 09:35:11 17° 165° (SSE) 1,607 4.9 -17.9°
